Location: Austin
(30.3000°N, 97.7500°W)
Time: 12:14:15
(UTC-05:00)

Cosmos 1805 Rocket - Pass Details

Date: 03 April 2024
Orbit: 602 x 627 km, 82.5° (Epoch: 22 April)

Event Time Altitude Azimuth Distance (km) Brightness Sun altitude
Rises 06:33:24 0° 342° (NNW) 2,873 6.9 -10.1°
Reaches altitude 10° 06:35:46 10° 334° (NNW) 1,961 6.0 -9.6°
Maximum altitude 06:39:41 34° 269° (W) 1,000 4.1 -8.8°
Drops below altitude 10° 06:43:34 10° 204° (SSW) 1,941 5.8 -8.0°
Sets 06:45:54 0° 195° (SSW) 2,838 6.7 -7.5°
